TimeEDT,TemperatureF,Dew PointF,Humidity,Sea Level PressureIn,VisibilityMPH,Wind Direction,Wind SpeedMPH,Gust SpeedMPH,PrecipitationIn,Events,Conditions,WindDirDegrees,DateUTC
12:54 AM,26.1,21.0,81,30.35,-9999.0,North,-9999.0,-,N/A,,Unknown,0,2013-03-10 05:54:00
1:54 AM,25.0,21.0,85,30.34,-9999.0,North,-9999.0,-,N/A,,Unknown,0,2013-03-10 06:54:00
3:54 AM,24.1,19.9,84,30.33,-9999.0,North,-9999.0,-,N/A,,Unknown,0,2013-03-10 07:54:00
4:54 AM,23.0,19.0,85,30.33,-9999.0,North,-9999.0,-,N/A,,Unknown,0,2013-03-10 08:54:00
5:54 AM,21.9,19.0,89,30.34,-9999.0,North,-9999.0,-,N/A,,Unknown,0,2013-03-10 09:54:00
6:54 AM,21.9,19.0,89,30.36,-9999.0,North,-9999.0,-,N/A,,Unknown,0,2013-03-10 10:54:00
7:54 AM,21.9,19.0,89,30.38,-9999.0,North,-9999.0,-,N/A,,Unknown,0,2013-03-10 11:54:00
8:54 AM,24.1,19.9,84,30.38,-9999.0,North,-9999.0,-,N/A,,Unknown,0,2013-03-10 12:54:00
9:54 AM,30.0,21.9,72,30.36,-9999.0,North,-9999.0,-,N/A,,Unknown,0,2013-03-10 13:54:00
10:54 AM,37.0,23.0,57,30.34,-9999.0,North,-9999.0,-,N/A,,Unknown,0,2013-03-10 14:54:00
11:54 AM,43.0,23.0,45,30.31,-9999.0,North,-9999.0,-,N/A,,Unknown,0,2013-03-10 15:54:00
12:54 PM,45.0,21.0,39,30.28,-9999.0,North,-9999.0,-,N/A,,Unknown,0,2013-03-10 16:54:00
1:54 PM,48.9,21.9,35,30.24,-9999.0,North,-9999.0,-,N/A,,Unknown,0,2013-03-10 17:54:00
2:54 PM,50.0,21.0,32,30.23,-9999.0,North,-9999.0,-,N/A,,Unknown,0,2013-03-10 18:54:00
3:54 PM,50.0,21.0,32,30.22,-9999.0,North,-9999.0,-,N/A,,Unknown,0,2013-03-10 19:54:00
4:54 PM,51.1,23.0,33,30.20,-9999.0,North,-9999.0,-,N/A,,Unknown,0,2013-03-10 20:54:00
5:54 PM,48.9,21.9,35,30.18,-9999.0,North,-9999.0,-,N/A,,Unknown,0,2013-03-10 21:54:00
6:54 PM,48.0,21.9,36,30.19,-9999.0,North,-9999.0,-,N/A,,Unknown,0,2013-03-10 22:54:00
7:54 PM,46.0,21.9,39,30.21,-9999.0,North,-9999.0,-,N/A,,Unknown,0,2013-03-10 23:54:00
8:54 PM,45.0,23.0,42,30.18,-9999.0,North,-9999.0,-,N/A,,Unknown,0,2013-03-11 00:54:00
9:54 PM,43.0,25.0,49,30.20,-9999.0,North,-9999.0,-,N/A,,Unknown,0,2013-03-11 01:54:00
10:54 PM,42.1,26.1,53,30.19,-9999.0,North,-9999.0,-,N/A,,Unknown,0,2013-03-11 02:54:00
11:54 PM,41.0,26.1,55,30.19,-9999.0,North,-9999.0,-,N/A,,Unknown,0,2013-03-11 03:54:00
12:54 AM,39.9,27.0,60,30.21,-9999.0,North,-9999.0,-,N/A,,Unknown,0,2013-03-11 04:54:00